AirNav   Air Wisconsin pilot careers
 
 964 users online  

01IN Community Hospital Heliport
Anderson, Indiana, USA

GOING TO ANDERSON?


FAA INFORMATION EFFECTIVE 07 DECEMBER 2017

Location

FAA Identifier: 01IN
Lat/Long: 40-07-59.3500N / 085-41-39.9200W
40-07.989167N / 085-41.665333W
40.1331528 / -85.6944222
(estimated)
Elevation: 890 ft. / 271 m (estimated)
Variation: 03W (1985)
From city: HELIPORT LCTD WITHIN CITY LIMITS.
Time zone: UTC -5 (UTC -4 during Daylight Saving Time)
Zip code: 46011

Heliport Operations

Heliport use: Private use, MEDICAL USE.
Activation date: 09/1972
Control tower: no
ARTCC: INDIANAPOLIS CENTER
FSS: TERRE HAUTE FLIGHT SERVICE STATION
Attendance: UNATNDD
Wind indicator: yes
Segmented circle: yes

Heliport Communications

WX AWOS-3 at AID (4 nm E): 128.55 (765-378-1510)
WX ASOS at MIE (15 nm NE): 114.4 (765-288-9617)
WX AWOS-3 at MQJ (20 nm SW): 124.175 (317-335-3037)

Nearby radio navigation aids

VOR radial/distance  VOR name  Freq  Var
MIEr249/15.1MUNCIE VOR/DME114.4003W
MZZr185/21.6MARION VOR/DME108.6003W
OKKr150/28.9KOKOMO VORTAC113.5005W
SHBr010/30.6SHELBYVILLE VOR/DME112.0001E
VHPr057/36.4BRICKYARD VORTAC116.3001E
GUSr148/37.1GRISSOM VORTAC108.4502W

 
NDB name  Hdg/Dist  Freq  Var  ID
VIDEO297/9.339403WAI .- ..
METROPOLITAN057/20.133803WUMP ..- -- .--.
NEW CASTLE313/23.038502WUWL ..- .-- .-..

Heliport Services

Airframe service: NONE
Powerplant service: NONE

Runway Information

Helipad H1

Dimensions: 45 x 45 ft. / 14 x 14 m
Surface: asphalt
Latitude: 40-07.989167N
Longitude: 085-41.665333W
Elevation: 890.0 ft.
Traffic pattern: leftleft

Heliport Ownership and Management from official FAA records

Ownership: Privately-owned
Owner: COMMUNITY HOSPITAL
1515 N MADISON AVENUE
ANDERSON, IN 46011
Phone 765-298-5125
Manager: BILL VANNESS, CEO
1515 N MADISON AVENUE
ANDERSON, IN 46011
Phone 765-298-5125
ROB HAYES 765-298-5617.

Instrument Procedures

There are no published instrument procedures at 01IN.

Some nearby airports with instrument procedures:

KAID - Anderson Municipal Airport-Darlington Field (4 nm E)
KMIE - Delaware County Regional Airport (15 nm NE)
KMQJ - Indianapolis Regional Airport (20 nm SW)
KUMP - Indianapolis Metropolitan Airport (20 nm SW)
KMZZ - Marion Municipal Airport (21 nm N)
 
Loc | Ops | Rwys | IFR | FBO | Links
Com | Nav | Svcs | Stats | Notes


 
Area around 01IN (Community Hospital Heliport)
 
Road maps at: MapQuest Bing Google
 
Aerial photo
No photo
 
Sectional chart

 
Airport distance calculator
Flying to Community Hospital Heliport? Find the distance to fly.

From to 01IN

Sunrise and sunset
Times for 11-Dec-2017
 Local
(UTC-5)
 Zulu
(UTC)
Morning civil twilight07:2512:25
Sunrise07:5612:56
Sunset17:1622:16
Evening civil twilight17:4722:47

Current date and time
Zulu (UTC)  12-Dec-2017 01:45:44
Local (UTC-5)  11-Dec-2017 20:45:44
 
METAR
KAID 
4nm E 
112045Z 15007KT 10SM CLR 04/M02 A2972 RMK LAST
KMIE 
15nm NE 
120053Z VRB04KT 10SM SCT060 03/M02 A2966 RMK AO2 SLP049 T00331022
KMQJ 
20nm SW 
120135Z AUTO 26013G21KT 10SM CLR 05/M01 A2968 RMK AO1
TAF
KGUS 
37nm NW 
111100Z 1111/1217 19012KT 9999 BKN070 QNH3000INS BECMG 1115/1116 19012KT 9999 SCT150 QNH2963INS BECMG 1202/1203 27012KT 9999 SCT020 BKN120 QNH2962INS BECMG 1204/1205 31020G30KT 8000 BR OVC007 620079 QNH2969INS TEMPO 1205/1209 31025G35KT 510003 BECMG 1208/1209 31025G35KT 6000 -SN OVC015 620155 510003 QNH2982INS BECMG 1214/1215 31015G25KT 9999 NSW BKN030 620302 QNH2999INS TX02/1120Z TNM07/1211Z
KIND 
37nm SW 
120021Z 1200/1306 25012G18KT P6SM BKN120 FM120600 31011G24KT P6SM OVC010 FM120800 31012G27KT P6SM VCSH OVC015 FM121100 31013G26KT P6SM VCSH BKN045 FM121800 30012G24KT P6SM SCT070 FM130400 30006KT P6SM FEW200
NOTAMs
Click for the latest NOTAMs
NOTAMs are issued by the DoD/FAA and will open in a separate window not controlled by AirNav.

 

 
 

Would you like to see your business listed on this page?

 If your business provides an interesting product or service to pilots, flight crews, aircraft, or users of the Community Hospital Heliport, you should consider listing it here.  To start the listing process, click on the button below
 
Add a business
 

Other Pages about Community Hospital Heliport

Update a link
 
Copyright © AirNav, LLC. All rights reserved. Privacy Policy  Contact